Wind_Speed
50 57 59 64 71 78 84 83 74 64 63 67 55 32 13 10 19 35 44 45 57 57 28 56 63 62 63 58 58 58 57 56 56 48 59 61 57 56 54 50 50 49 47 43 43
51 53 57 61 70 77 83 83 75 67 66 68 47 29 10 7 16 31 44 43 51 66 56 30 62 61 62 55 61 59 56 46 53 43 56 60 60 57 55 54 54 49 47 46 46
45 50 54 60 68 75 80 83 76 69 68 66 42 26 9 9 16 32 42 34 38 63 54 46 57 60 64 54 53 57 51 51 52 57 45 56 63 58 56 54 51 50 45 45 45
44 48 52 59 65 71 78 81 77 71 69 61 38 23 8 9 12 37 40 38 31 54 58 52 51 58 58 60 43 53 55 53 47 39 57 58 62 60 58 58 53 48 48 46 46
41 45 50 58 63 69 76 80 78 72 71 59 37 21 4 13 18 40 34 39 29 45 55 55 46 50 55 63 43 48 54 50 52 45 46 60 58 60 60 56 54 51 47 48 48
39 44 49 55 60 68 74 78 77 73 71 60 39 22 5 12 29 30 39 38 33 39 50 53 43 50 57 55 54 45 36 51 49 46 45 53 60 61 59 55 53 51 50 48 47
35 42 46 52 57 65 71 75 76 73 69 62 44 29 8 18 36 37 32 37 36 38 46 41 46 38 54 54 52 51 43 41 48 34 46 49 58 60 60 57 53 51 52 51 49
33 39 44 49 55 62 68 72 73 70 68 64 49 36 13 24 49 28 33 30 35 35 42 41 41 46 40 51 55 52 48 47 41 44 46 50 51 56 58 56 50 48 47 53 55
30 35 41 45 52 59 64 69 70 68 64 63 52 35 18 32 45 24 28 27 38 36 42 32 30 35 40 48 47 55 47 41 39 44 40 49 51 54 58 54 50 48 47 45 51
27 31 37 42 49 56 60 65 67 63 60 57 54 34 17 38 28 21 18 23 29 36 36 28 30 31 37 46 45 43 45 47 41 42 44 42 50 53 57 52 50 47 44 43 45
24 28 34 39 46 52 57 61 61 61 56 56 51 34 26 42 29 15 12 24 22 37 37 20 30 30 32 36 52 41 41 45 44 48 42 45 55 50 55 51 48 45 41 38 37
24 26 30 36 42 48 53 58 57 59 52 50 46 37 20 31 22 17 14 18 24 38 35 21 17 23 32 34 39 40 38 42 46 50 42 39 48 48 54 54 52 46 42 40 43
22 24 28 32 38 44 50 55 53 55 50 46 42 37 22 17 16 15 19 24 31 37 26 21 28 24 21 32 39 37 35 34 42 46 45 44 43 43 45 52 50 48 46 44 43
20 22 25 29 35 40 44 50 51 50 46 43 35 30 28 21 14 20 19 22 35 33 25 25 21 17 19 25 39 43 40 37 27 37 38 40 40 40 43 45 49 50 49 47 46
19 21 23 27 32 36 40 44 47 47 46 38 31 28 22 18 11 13 16 22 32 35 22 18 18 19 18 32 37 40 44 38 36 32 32 34 36 37 41 43 45 48 50 50 48
19 21 22 24 29 34 37 41 43 44 38 33 28 22 16 12 7 5 15 19 31 32 31 24 20 15 14 23 35 31 30 32 31 33 35 32 37 37 38 38 40 45 49 52 51
18 20 20 21 25 30 35 36 38 43 45 34 28 20 15 10 5 4 9 16 23 27 28 30 27 25 22 19 23 25 29 32 32 34 34 36 37 36 34 36 38 40 46 46 50
18 18 20 19 23 27 30 33 36 38 39 37 28 23 17 13 12 12 17 20 23 28 30 30 28 27 28 29 25 27 31 30 31 30 30 36 32 30 24 26 33 39 40 44 41
17 18 19 18 21 24 27 30 32 35 34 32 29 23 23 15 15 15 19 25 24 25 28 29 29 24 26 27 27 28 30 32 34 35 36 36 27 29 20 20 28 34 39 43 38
16 17 18 17 18 23 26 28 30 33 35 36 34 29 25 24 18 17 18 23 28 25 29 29 22 29 26 28 29 26 23 28 33 37 35 33 30 26 20 21 24 26 23 25 37
15 16 16 17 18 22 24 28 30 32 36 38 37 37 36 31 26 15 20 21 25 32 33 33 34 32 29 27 28 29 30 29 28 33 33 22 25 25 21 21 23 24 24 23 21
13 15 15 18 20 22 24 25 30 30 34 38 40 44 44 45 37 22 19 22 26 32 43 35 34 34 27 29 29 29 27 26 31 30 31 33 33 26 20 21 23 25 25 26 26
13 15 16 19 20 22 24 26 28 29 33 37 41 46 49 50 48 32 16 27 32 29 34 42 46 35 31 29 31 32 31 25 24 26 26 27 28 29 22 22 23 25 28 28 28
10 13 17 19 21 23 24 26 28 29 32 38 42 48 54 56 54 43 24 21 33 30 28 33 36 47 41 37 37 33 32 31 31 33 29 29 28 30 22 24 24 25 33 34 32
10 12 16 19 22 23 24 28 29 30 33 37 42 48 54 58 61 43 32 21 22 30 37 28 31 32 38 41 34 35 38 36 36 32 33 29 29 24 23 25 25 28 30 32 33
10 10 14 18 20 23 25 28 30 30 34 38 42 47 54 57 61 52 37 23 22 27 36 37 32 29 32 33 32 36 34 31 35 36 32 29 25 27 28 29 27 27 29 31 26
10 9 15 18 20 24 25 29 31 31 32 36 43 48 54 57 61 57 42 27 21 28 32 32 26 35 29 32 22 33 32 34 33 32 33 31 28 26 25 26 25 26 29 30 32
Wind_Direction
355 353 355 358 359 359 360 358 351 346 348 347 346 339 294 235 209 198 192 195 195 194 173 206 204 204 200 202 202 204 206 209 204 209 215 213 215 215 217 216 215 214 218 218 221
353 352 356 357 359 360 0 359 353 348 350 349 348 344 296 218 188 192 184 179 201 198 205 190 198 202 205 200 203 203 205 204 212 211 212 212 215 214 218 217 218 211 213 216 218
354 352 357 357 360 0 1 1 356 351 352 351 351 348 311 178 193 186 179 183 198 199 207 203 196 200 198 195 199 205 199 203 207 207 204 218 214 214 217 219 220 224 213 215 218
355 355 358 1 2 1 3 3 360 354 353 356 356 352 329 166 153 181 171 189 180 199 200 200 207 197 195 195 192 206 198 205 206 207 217 217 213 214 216 216 219 221 223 218 220
353 355 359 3 3 3 6 6 3 357 355 0 359 357 318 190 181 178 181 192 167 184 195 201 201 194 197 200 199 198 201 207 203 205 215 216 214 215 217 215 219 220 220 226 220
353 356 359 4 5 5 7 9 7 1 358 4 5 2 3 196 182 178 187 188 170 181 188 197 197 202 197 196 199 196 201 211 208 208 216 216 215 215 218 217 218 221 223 225 231
351 356 359 4 6 7 8 12 11 6 1 8 11 8 9 173 182 143 172 196 189 178 189 190 201 201 196 197 203 203 208 208 208 204 218 217 216 217 218 217 218 222 225 227 229
351 357 360 4 8 10 10 14 14 11 7 10 14 15 20 169 166 163 148 161 176 183 187 189 196 209 209 204 197 202 206 208 215 216 215 217 216 218 219 218 220 223 229 232 229
349 356 1 4 9 13 13 13 17 16 11 12 16 22 37 162 167 132 153 149 163 176 178 181 185 202 207 201 200 205 203 202 218 211 216 214 215 217 219 216 219 225 231 234 236
345 356 0 5 12 15 15 15 18 18 17 16 18 22 61 156 145 145 152 147 159 157 172 193 195 196 191 197 195 196 204 208 210 214 218 217 214 216 219 218 220 224 230 237 243
345 355 1 7 14 15 16 18 20 21 21 21 20 34 109 145 157 139 159 180 164 156 174 151 186 196 197 197 202 203 200 210 208 214 218 217 219 218 220 219 223 225 230 239 246
346 353 2 8 15 16 17 20 21 23 24 26 25 35 126 147 145 129 130 151 169 173 176 177 178 190 203 204 206 205 202 210 211 216 220 223 221 218 222 224 224 225 230 240 247
347 351 2 7 14 16 18 21 23 24 26 30 29 35 63 120 155 146 144 151 164 182 190 184 210 211 202 210 210 203 203 207 216 217 219 224 224 223 219 223 223 227 233 239 245
349 350 1 7 13 15 16 20 22 26 28 32 34 38 49 73 117 126 132 155 167 177 184 184 187 201 222 210 201 204 199 202 208 217 224 225 224 227 227 223 225 230 235 238 245
347 349 357 6 10 14 14 18 22 21 31 28 29 30 39 62 77 124 146 161 174 180 165 170 176 197 209 216 215 209 210 219 219 227 226 223 231 229 228 229 232 234 237 241 245
335 345 351 2 9 14 16 18 22 26 32 37 27 18 26 36 45 136 163 172 184 198 206 214 202 204 201 202 212 212 212 221 225 228 229 232 235 229 232 234 236 240 242 247 246
327 340 343 358 6 13 16 17 22 23 19 32 39 26 8 338 313 234 205 203 201 202 209 215 218 223 221 212 210 216 218 224 226 230 232 231 232 229 231 236 240 243 244 249 250
318 334 335 349 358 5 12 14 17 21 21 23 37 42 24 355 318 271 247 230 221 221 219 220 219 219 217 217 218 221 222 229 233 236 240 233 231 235 242 237 238 243 248 252 246
313 326 329 344 349 360 4 7 12 16 18 17 20 28 28 11 326 301 256 240 233 236 229 221 223 225 223 218 214 217 222 227 233 236 237 237 235 238 240 232 233 242 251 247 245
308 321 325 339 349 357 1 360 4 8 11 8 8 8 9 8 349 296 277 252 247 251 233 220 224 237 228 226 224 221 225 230 230 231 234 242 242 244 235 233 238 248 256 251 243
310 322 327 335 343 348 352 355 359 3 5 2 0 0 355 352 352 307 274 261 247 240 235 225 224 228 223 223 226 232 240 243 241 234 235 236 252 237 235 236 239 242 243 242 238
302 320 335 335 340 346 347 350 354 358 1 357 354 353 349 345 344 339 269 253 243 234 229 222 225 224 232 232 230 231 233 235 237 238 238 241 240 244 241 238 240 244 246 244 247
281 304 324 329 338 341 342 345 346 350 355 355 350 348 346 344 338 343 308 250 244 244 237 238 230 227 228 226 227 234 234 237 241 242 242 242 246 246 251 244 240 243 244 244 243
270 297 311 324 329 335 343 343 339 343 353 353 348 345 343 344 340 343 324 255 240 229 238 244 245 237 233 242 240 240 242 241 247 248 249 248 252 258 261 250 241 237 238 240 245
269 289 306 318 325 331 342 341 337 340 350 349 348 344 341 343 340 342 338 272 229 226 222 225 246 251 242 237 243 241 241 243 244 252 252 256 257 252 260 257 251 245 246 242 246
292 288 308 314 325 332 339 339 337 338 344 345 346 342 340 342 340 347 343 306 235 225 222 233 236 237 230 245 253 247 244 242 242 241 249 260 254 262 262 261 260 257 253 242 242
293 298 317 317 327 333 334 336 334 332 340 342 343 341 340 341 339 343 345 318 262 220 216 209 241 249 245 228 237 246 250 249 248 245 247 249 261 258 260 264 263 257 251 245 241
Height
5766 5756 5744 5730 5714 5699 5683 5665 5646 5631 5617 5602 5587 5577 5573 5573 5576 5585 5595 5611 5627 5639 5647 5653 5667 5679 5690 5701 5715 5725 5734 5744 5754 5762 5768 5775 5783 5790 5796 5803 5809 5813 5820 5830 5833
5765 5754 5741 5728 5713 5698 5681 5663 5643 5626 5612 5598 5582 5573 5570 5572 5576 5582 5592 5605 5618 5628 5634 5646 5659 5674 5688 5698 5707 5715 5728 5742 5755 5760 5761 5768 5775 5784 5790 5797 5801 5808 5815 5822 5828
5763 5752 5740 5727 5712 5696 5681 5663 5642 5623 5609 5594 5579 5572 5568 5571 5575 5580 5592 5605 5613 5624 5634 5646 5655 5669 5682 5691 5703 5713 5726 5736 5737 5744 5752 5760 5767 5778 5782 5787 5797 5805 5811 5817 5823
5761 5750 5738 5726 5712 5697 5681 5662 5640 5622 5607 5590 5578 5571 5567 5571 5578 5581 5590 5599 5607 5622 5634 5645 5655 5667 5678 5691 5698 5709 5718 5723 5733 5742 5750 5755 5762 5770 5775 5781 5793 5799 5805 5811 5816
5759 5749 5737 5724 5711 5697 5681 5663 5643 5622 5605 5590 5577 5571 5568 5569 5573 5579 5589 5596 5606 5618 5632 5644 5655 5665 5678 5688 5694 5703 5713 5720 5728 5738 5743 5749 5758 5762 5768 5779 5786 5794 5799 5805 5810
5757 5748 5736 5723 5711 5697 5681 5665 5646 5624 5607 5590 5578 5570 5567 5569 5572 5580 5587 5597 5609 5621 5633 5643 5652 5661 5672 5681 5692 5700 5709 5717 5724 5730 5736 5743 5747 5756 5766 5774 5781 5788 5794 5799 5806
5755 5746 5736 5723 5710 5698 5683 5667 5649 5629 5612 5594 5581 5571 5567 5570 5573 5584 5592 5600 5612 5623 5634 5644 5653 5664 5670 5678 5688 5693 5703 5708 5719 5725 5730 5736 5742 5754 5758 5767 5774 5781 5787 5793 5799
5753 5745 5735 5723 5711 5699 5685 5670 5655 5635 5617 5600 5587 5576 5570 5572 5579 5590 5596 5605 5615 5626 5636 5647 5654 5661 5669 5677 5687 5695 5701 5709 5714 5718 5724 5732 5745 5748 5753 5762 5769 5776 5782 5787 5793
5750 5743 5734 5723 5710 5699 5687 5673 5659 5643 5625 5608 5595 5585 5577 5579 5590 5598 5604 5612 5620 5629 5639 5647 5653 5661 5669 5678 5686 5691 5699 5704 5709 5714 5720 5728 5737 5741 5743 5755 5762 5770 5776 5780 5785
5748 5740 5732 5722 5711 5700 5688 5676 5663 5651 5633 5617 5604 5597 5588 5593 5601 5608 5613 5620 5627 5635 5644 5649 5654 5660 5666 5675 5683 5689 5695 5701 5705 5712 5718 5724 5731 5733 5740 5750 5755 5762 5769 5774 5778
5745 5738 5730 5721 5710 5700 5690 5679 5669 5657 5642 5626 5615 5604 5602 5605 5610 5615 5621 5628 5634 5638 5647 5648 5655 5661 5667 5673 5676 5685 5692 5698 5703 5707 5714 5719 5723 5728 5736 5743 5749 5756 5764 5769 5772
5742 5736 5728 5720 5710 5702 5692 5680 5670 5661 5651 5637 5627 5619 5615 5618 5620 5623 5628 5634 5640 5647 5649 5653 5657 5662 5667 5672 5678 5683 5690 5695 5700 5705 5712 5714 5718 5722 5728 5737 5743 5750 5755 5760 5764
5740 5734 5727 5719 5710 5702 5693 5681 5673 5665 5658 5646 5637 5631 5626 5626 5628 5630 5634 5637 5642 5650 5653 5656 5661 5664 5668 5671 5677 5683 5689 5693 5698 5701 5706 5709 5714 5719 5725 5730 5737 5743 5747 5752 5755
5737 5731 5725 5718 5710 5702 5694 5684 5676 5669 5661 5654 5647 5641 5635 5634 5636 5636 5638 5643 5644 5650 5653 5658 5661 5662 5665 5669 5676 5680 5684 5687 5693 5698 5702 5703 5711 5712 5718 5725 5728 5734 5737 5741 5745
5734 5728 5723 5715 5710 5702 5695 5686 5679 5671 5666 5659 5654 5648 5646 5645 5646 5644 5643 5646 5648 5651 5655 5657 5659 5663 5665 5669 5673 5676 5681 5685 5689 5693 5695 5699 5702 5710 5712 5717 5722 5725 5728 5731 5736
5731 5726 5721 5714 5709 5702 5695 5687 5680 5675 5668 5664 5658 5655 5652 5650 5650 5649 5649 5649 5649 5651 5653 5655 5658 5661 5662 5664 5668 5674 5678 5682 5685 5688 5688 5695 5697 5702 5707 5710 5712 5714 5720 5722 5726
5728 5723 5719 5713 5708 5701 5694 5689 5683 5675 5671 5668 5663 5659 5656 5654 5653 5651 5651 5651 5651 5652 5652 5654 5655 5658 5661 5664 5666 5670 5674 5677 5680 5681 5687 5688 5691 5698 5699 5701 5704 5707 5712 5715 5717
5725 5720 5716 5710 5705 5699 5694 5689 5682 5676 5671 5667 5664 5661 5659 5656 5653 5651 5649 5647 5648 5648 5648 5649 5652 5654 5656 5660 5663 5666 5670 5673 5674 5677 5680 5682 5686 5690 5693 5695 5697 5701 5704 5707 5709
5721 5717 5713 5708 5703 5698 5694 5688 5682 5676 5671 5667 5663 5660 5657 5654 5651 5648 5645 5644 5644 5644 5646 5647 5648 5651 5654 5655 5659 5661 5664 5667 5668 5670 5673 5677 5681 5684 5687 5689 5691 5695 5696 5698 5702
5717 5714 5710 5705 5701 5696 5692 5687 5681 5674 5670 5665 5660 5657 5654 5652 5648 5642 5640 5640 5640 5639 5640 5642 5644 5646 5648 5651 5654 5656 5660 5661 5662 5665 5668 5672 5674 5677 5682 5684 5686 5689 5691 5692 5695
5713 5710 5706 5702 5698 5694 5690 5685 5679 5672 5668 5663 5658 5653 5648 5645 5641 5636 5634 5634 5633 5632 5634 5636 5639 5642 5643 5646 5650 5652 5653 5656 5657 5660 5662 5667 5668 5672 5676 5678 5680 5683 5686 5688 5689
5708 5707 5703 5699 5697 5691 5687 5683 5677 5670 5666 5661 5655 5648 5642 5634 5632 5628 5625 5623 5623 5624 5626 5630 5632 5635 5638 5640 5643 5645 5647 5649 5650 5654 5657 5659 5664 5666 5671 5673 5675 5678 5680 5683 5685
5703 5702 5699 5696 5692 5688 5684 5680 5675 5669 5663 5659 5652 5646 5637 5629 5620 5619 5615 5613 5613 5616 5618 5620 5624 5628 5630 5634 5636 5639 5643 5644 5646 5648 5650 5654 5659 5660 5665 5668 5670 5672 5674 5676 5678
5698 5697 5695 5691 5688 5684 5680 5676 5672 5666 5661 5655 5650 5642 5632 5625 5614 5609 5605 5602 5601 5607 5611 5611 5613 5618 5624 5626 5630 5633 5636 5639 5641 5641 5645 5647 5652 5653 5658 5659 5661 5665 5666 5668 5671
5691 5691 5690 5687 5683 5680 5677 5672 5667 5663 5658 5652 5646 5638 5629 5620 5608 5600 5594 5589 5591 5595 5600 5602 5606 5610 5613 5619 5621 5625 5628 5631 5634 5637 5637 5642 5643 5649 5649 5651 5654 5656 5658 5662 5665
5686 5686 5684 5682 5679 5676 5672 5668 5664 5659 5654 5647 5641 5634 5625 5615 5604 5594 5586 5580 5580 5584 5590 5597 5598 5602 5606 5610 5613 5616 5620 5623 5627 5630 5632 5633 5639 5638 5642 5644 5648 5650 5653 5655 5659
5680 5679 5679 5677 5674 5671 5668 5664 5659 5654 5651 5644 5637 5630 5620 5611 5598 5586 5580 5572 5571 5573 5578 5585 5592 5597 5600 5603 5605 5607 5614 5617 5620 5623 5626 5629 5632 5633 5636 5637 5640 5643 5645 5648 5651